Temp
14 15 15 16 16 17 17 18 18 18 19 19 18 17 18 19 19 19 18 18 18 18 17 17 16 15 14 14 13 13 12 12
12 12 13 13 14 16 16 17 18 18 18 18 18 19 18 18 18 19 18 17 17 17 17 17 16 16 14 14 13 12 12 12
12 11 11 12 12 13 14 15 17 18 18 18 18 18 17 19 18 18 18 17 17 16 17 17 16 15 14 14 13 12 12 12
10 11 11 11 11 12 13 14 14 15 17 15 13 13 12 13 14 18 18 18 17 17 17 17 16 15 14 13 12 12 12 11
8 9 10 11 11 11 11 13 13 14 14 13 12 13 12 13 17 19 19 19 17 17 16 17 16 15 14 12 11 12 12 11
4 5 7 8 9 10 11 11 12 13 13 13 12 12 13 14 14 18 19 19 18 16 16 16 15 15 14 12 11 11 11 11
3 4 5 6 6 7 8 10 12 13 12 13 12 12 12 12 12 15 18 19 18 17 16 16 16 15 14 12 11 11 11 11
1 1 2 2 5 5 6 7 10 11 11 12 12 12 13 12 12 14 18 18 18 17 17 17 17 16 14 12 11 11 11 11
1 -0 -0 -1 3 4 5 6 7 8 9 10 12 12 12 12 12 12 15 17 19 17 17 17 18 16 13 12 11 11 11 11
-1 -1 -2 -1 2 4 3 4 7 8 9 11 11 12 12 12 12 12 12 14 14 14 17 17 16 14 12 11 11 11 11 11
-2 -2 -3 -2 2 2 2 4 4 7 9 12 12 13 12 12 12 12 13 14 14 15 17 16 16 12 11 11 10 10 10 10
-2 -3 -3 -1 1 1 2 4 5 8 10 11 14 12 12 12 12 12 12 15 13 15 16 15 13 10 10 10 10 10 10 10
-3 -4 -2 -0 -0 0 1 2 4 6 8 9 12 11 12 12 12 12 12 12 12 12 14 13 11 11 10 10 10 10 10 10
-4 -4 -3 -3 -2 -2 -0 1 3 6 8 9 10 10 11 12 13 12 11 13 13 12 11 11 11 11 10 10 10 10 9 9
-4 -5 -4 -4 -3 -2 -1 1 2 3 5 8 9 9 10 11 10 12 12 11 11 11 10 10 12 10 10 9 9 9 8 8
-5 -5 -4 -4 -3 -2 -1 -0 1 2 4 6 8 9 9 10 9 9 9 10 10 10 10 10 11 9 9 9 9 8 8 8
-5 -5 -5 -4 -4 -3 -2 -2 -0 1 2 3 4 6 7 9 9 9 9 10 11 9 9 10 9 9 9 8 8 8 8 8
-5 -5 -5 -5 -4 -4 -3 -2 -1 -0 0 2 2 3 4 5 6 6 5 8 9 9 9 9 8 8 8 8 8 8 8 7
-6 -5 -5 -4 -4 -3 -3 -3 -2 -1 -1 0 1 2 2 2 2 3 6 5 6 8 8 8 8 8 8 8 8 8 8 7
Height
1451 1450 1448 1447 1446 1445 1445 1447 1448 1450 1451 1452 1453 1456 1460 1465 1468 1469 1472 1475 1478 1481 1484 1487 1491 1493 1497 1500 1503 1505 1508 1510
1447 1445 1443 1441 1439 1438 1437 1438 1440 1440 1441 1442 1442 1444 1449 1453 1458 1462 1464 1467 1471 1475 1477 1480 1485 1487 1491 1495 1498 1501 1503 1507
1442 1441 1439 1436 1434 1431 1430 1429 1429 1431 1432 1433 1435 1436 1437 1443 1449 1452 1456 1460 1464 1468 1470 1474 1477 1482 1486 1489 1492 1495 1498 1501
1440 1438 1434 1432 1429 1427 1424 1422 1421 1421 1422 1424 1427 1429 1432 1435 1437 1442 1447 1452 1454 1458 1462 1467 1471 1475 1479 1483 1486 1490 1493 1496
1439 1436 1433 1428 1424 1421 1419 1416 1414 1413 1414 1415 1417 1417 1419 1421 1426 1432 1437 1442 1446 1450 1454 1459 1464 1468 1472 1477 1481 1485 1489 1491
1439 1435 1431 1426 1421 1416 1412 1410 1408 1405 1404 1405 1408 1410 1411 1415 1419 1422 1428 1433 1438 1443 1446 1451 1457 1460 1465 1470 1475 1479 1482 1486
1437 1432 1427 1423 1418 1413 1407 1403 1400 1397 1395 1395 1396 1399 1403 1408 1410 1412 1417 1422 1428 1433 1439 1445 1450 1453 1457 1463 1469 1472 1477 1480
1434 1429 1423 1419 1413 1407 1402 1397 1392 1389 1385 1384 1385 1389 1394 1399 1403 1405 1407 1411 1417 1424 1432 1436 1440 1445 1450 1457 1461 1465 1470 1473
1433 1429 1423 1417 1409 1402 1396 1390 1386 1381 1378 1374 1375 1380 1386 1391 1396 1399 1401 1404 1408 1415 1423 1428 1433 1438 1443 1450 1454 1458 1463 1467
1435 1427 1421 1414 1404 1398 1392 1385 1380 1376 1371 1367 1368 1373 1379 1383 1389 1393 1396 1399 1403 1409 1417 1423 1428 1432 1438 1445 1448 1452 1457 1461
1432 1425 1419 1411 1402 1394 1388 1382 1376 1371 1366 1360 1365 1368 1374 1378 1382 1385 1390 1393 1398 1403 1410 1417 1420 1427 1434 1439 1443 1447 1451 1455
1430 1424 1416 1407 1400 1393 1385 1377 1370 1364 1360 1359 1361 1365 1371 1375 1376 1380 1384 1388 1391 1396 1404 1410 1413 1423 1430 1434 1438 1442 1445 1449
1430 1424 1415 1406 1400 1392 1385 1377 1369 1364 1363 1359 1361 1367 1369 1368 1372 1375 1379 1382 1387 1392 1397 1403 1408 1420 1426 1430 1434 1437 1441 1445
1432 1425 1416 1408 1400 1394 1385 1377 1369 1362 1358 1359 1362 1365 1367 1370 1371 1374 1376 1381 1383 1388 1394 1400 1406 1414 1422 1426 1430 1434 1436 1439
1436 1428 1418 1410 1403 1394 1386 1378 1373 1368 1364 1363 1364 1364 1364 1367 1373 1375 1376 1379 1381 1385 1392 1399 1396 1411 1419 1423 1426 1428 1431 1433
1437 1430 1421 1413 1405 1396 1389 1381 1375 1369 1365 1363 1363 1363 1364 1365 1369 1371 1374 1377 1379 1385 1389 1392 1391 1411 1417 1420 1422 1424 1426 1429
1437 1432 1425 1417 1409 1402 1395 1386 1380 1375 1370 1365 1363 1364 1363 1365 1366 1365 1366 1366 1372 1370 1382 1383 1398 1409 1413 1417 1418 1421 1423 1424
1439 1435 1429 1422 1415 1407 1399 1394 1388 1381 1376 1372 1369 1367 1365 1365 1365 1365 1366 1363 1368 1378 1378 1385 1399 1405 1410 1412 1415 1417 1419 1420
1441 1437 1432 1426 1420 1414 1408 1401 1394 1388 1383 1379 1376 1374 1373 1373 1372 1369 1367 1370 1373 1376 1381 1388 1394 1401 1406 1409 1411 1414 1415 1416
Wind_Speed
15 15 17 18 19 20 23 25 23 25 31 34 40 43 44 44 40 39 36 36 35 32 31 30 28 27 28 28 28 28 28 27
14 15 15 18 20 22 21 24 26 26 30 36 39 44 46 50 47 42 39 36 37 35 34 32 30 29 30 28 27 27 27 26
13 15 15 15 15 16 16 20 25 28 30 33 38 39 45 48 49 48 42 38 37 38 37 34 33 30 30 29 28 28 28 27
18 20 21 21 20 17 15 16 22 25 30 31 32 32 33 35 46 51 47 41 38 39 39 36 35 32 31 30 28 27 28 28
20 22 23 24 24 24 23 18 19 23 25 31 31 37 38 44 45 51 50 45 42 40 39 38 36 34 33 31 28 27 28 29
18 22 26 28 28 27 26 26 23 20 25 31 34 39 41 41 43 48 48 44 44 42 40 41 37 35 32 32 31 31 30 30
21 22 24 25 27 28 27 26 27 24 22 30 38 40 41 37 40 46 49 48 43 44 41 37 37 35 32 34 30 29 29 29
25 27 27 27 26 26 24 23 27 23 23 29 36 41 41 40 37 44 49 51 46 46 40 35 37 38 36 33 30 28 29 29
25 25 25 27 27 25 22 22 25 20 19 23 31 37 40 41 40 38 48 48 48 48 46 45 43 41 36 31 28 26 28 27
23 24 24 27 28 26 25 22 19 18 15 12 18 28 35 39 40 39 41 41 41 43 43 41 41 34 30 28 27 26 25 28
25 25 25 27 27 26 24 21 19 14 11 6 14 20 29 34 35 34 36 33 36 37 38 38 33 30 28 29 29 27 27 30
27 26 27 28 26 26 25 22 18 13 5 3 16 18 23 30 28 26 31 30 31 33 29 28 30 28 28 28 27 24 28 22
26 28 29 28 28 27 25 24 19 13 7 7 8 12 19 17 20 23 24 25 25 26 28 30 28 25 24 23 22 22 22 25
26 28 30 29 28 28 26 24 21 17 7 3 2 11 10 4 6 11 14 19 19 22 26 27 26 24 22 22 22 23 24 25
23 27 30 29 27 27 26 24 21 19 14 9 5 9 10 10 11 12 12 14 20 26 26 26 21 17 21 21 22 20 19 19
21 27 30 29 28 27 26 24 22 21 16 9 6 2 8 11 16 16 19 22 21 30 30 24 19 22 20 17 18 17 15 15
21 24 27 29 28 28 26 27 24 22 21 19 13 6 3 10 14 19 26 37 28 29 23 24 21 20 15 15 18 16 15 13
18 21 24 27 28 27 28 27 26 27 27 25 22 16 10 8 11 17 25 29 31 23 28 25 24 20 17 17 16 15 15 14
17 20 22 24 26 29 29 28 28 31 30 30 29 26 23 18 12 17 22 25 28 28 24 23 21 19 18 18 18 17 16 14
Wind_Direction
312 310 301 294 287 280 268 254 249 255 256 254 252 248 241 243 243 245 242 237 232 228 227 229 227 229 231 231 236 239 243 244
316 312 307 296 289 278 270 262 251 248 251 248 249 248 242 239 238 240 239 236 232 229 229 227 228 228 231 232 234 237 243 243
327 326 323 326 322 304 283 266 256 248 245 245 251 255 245 237 238 238 237 237 232 229 231 227 229 227 230 230 230 232 240 240
335 323 321 318 318 318 309 289 273 254 243 240 243 248 237 235 236 234 236 237 229 228 230 229 228 229 230 233 230 228 235 237
341 334 325 316 311 306 304 300 291 273 256 236 229 227 223 229 228 229 234 233 229 225 226 229 227 229 232 230 229 231 235 232
346 343 336 323 311 302 296 293 293 286 260 247 229 228 234 233 229 229 232 235 232 226 224 225 225 230 232 230 227 230 234 236
344 341 339 330 320 300 293 293 286 288 279 252 230 225 230 225 226 228 226 228 230 225 223 226 230 234 232 231 229 230 233 235
346 344 341 336 329 311 307 301 291 288 290 256 234 225 227 228 229 231 225 224 227 224 216 218 230 237 235 228 228 227 233 234
345 341 337 332 336 322 320 313 300 303 288 258 235 222 228 230 235 233 234 231 228 225 215 216 227 230 226 225 224 228 231 235
342 341 341 337 341 332 335 328 314 301 293 254 224 221 226 230 235 236 240 235 227 223 220 223 225 224 220 220 221 227 230 238
345 346 341 344 346 338 341 339 328 324 313 225 216 227 234 234 231 238 239 237 233 230 226 222 225 216 213 217 219 223 232 236
345 344 347 351 348 347 350 349 342 346 342 261 232 238 232 236 234 232 235 230 227 225 219 215 218 209 215 215 219 225 227 234
352 350 354 357 357 357 356 359 0 6 5 14 261 241 241 229 229 227 228 225 219 214 207 208 203 209 209 211 215 220 230 237
356 356 4 4 4 3 4 9 13 18 33 17 253 209 198 229 207 205 202 203 198 201 203 193 191 198 207 212 218 226 235 242
356 0 9 9 9 10 11 16 22 30 33 81 171 207 191 216 257 233 213 207 199 188 181 182 178 201 211 221 226 227 236 242
1 5 10 13 17 21 21 26 28 34 33 46 77 115 229 226 224 228 235 226 195 183 175 173 173 204 210 215 225 233 226 231
10 11 15 20 23 29 31 36 38 47 50 48 46 48 132 194 211 203 201 196 184 165 165 157 174 189 207 216 214 211 224 233
19 18 22 28 32 37 41 45 47 55 59 60 56 53 52 89 150 159 139 147 149 165 154 158 179 189 197 202 207 212 231 230
30 30 31 35 40 47 51 53 55 56 60 62 65 64 61 62 74 105 124 134 140 152 158 166 179 188 193 200 201 212 217 217